Change the Weather History Date:

Tuesday, April 1, 2014

  Actual Average Record
Temperature  
Mean Temperature 56 °F 42 °F  
Max Temperature 73 °F 50 °F 82 °F (2010)
Min Temperature 39 °F 33 °F 7 °F (1923)
Degree Days  
Heating Degree Days 9 24  
Month to date heating degree days 9 24  
Since 1 July heating degree days 5969 5300  
Cooling Degree Days 0 0  
Month to date cooling degree days 0 0  
Year to date cooling degree days 0 1  
Growing Degree Days 4 (Base 50)    
Moisture  
Dew Point 29 °F    
Average Humidity 40    
Maximum Humidity 53    
Minimum Humidity 27    
Precipitation  
Precipitation 0.00 in 0.11 in 0.89 in (1931)
Month to date precipitation 0.00 0.11  
Year to date precipitation 9.08 8.40  
Snow  
Snow 0.00 in 0.20 in - ()
Month to date snowfall 0.0 0.2  
Since 1 July snowfall 137.2 97.9  
Snow Depth 0.00 in    
Sea Level Pressure  
Sea Level Pressure 29.94 in    
Wind  
Wind Speed 16 mph (South)    
Max Wind Speed 26 mph    
Max Gust Speed 36 mph    
Visibility 10 miles    
Events      
T = Trace of Precipitation, MM = Missing Value Source: NWS Daily Summary

Daily Weather History Graph

Daily Weather History Graph

Search for Another Location

Airport or City:

Trip Planner

Search our weather history database for the weather conditions in past years. The results will help you decide how hot, cold, wet, or windy it might be!

Date:

Astronomy

Apr. 01, 2014 Rise Set
Actual Time 7:03 AM EDT 7:46 PM EDT
Civil Twilight 6:35 AM EDT 8:14 PM EDT
Nautical Twilight 6:01 AM EDT 8:48 PM EDT
Astronomical Twilight 5:27 AM EDT 9:22 PM EDT
Moon 8:03 AM EDT (4/1) 10:09 PM EDT (4/1)
Length of Visible Light 13h 39m
Length of Day
12h 43m
Waxing Crescent, 4% of the Moon is Illuminated
Apr 1
Waxing Crescent
Apr 7
First Quarter
Apr 15
Full
Apr 22
Last Quarter
Apr 29
New

Hourly Weather History & Observations

Time (EDT) Temp. Windchill Dew Point Humidity Pressure Visibility Wind Dir Wind Speed Gust Speed Precip Events Conditions
12:51 AM 43.0 °F 37.7 °F 25.0 °F 49% 30.11 in 10.0 mi SSE 9.2 mph - N/A   Clear
1:51 AM 45.0 °F 39.3 °F 24.1 °F 44% 30.08 in 10.0 mi SE 11.5 mph - N/A   Clear
2:51 AM 45.0 °F 38.9 °F 24.1 °F 44% 30.06 in 10.0 mi SSE 12.7 mph 20.7 mph N/A   Clear
3:51 AM 44.1 °F 37.1 °F 21.9 °F 42% 30.06 in 10.0 mi SSE 15.0 mph - N/A   Clear
4:51 AM 43.0 °F 35.4 °F 23.0 °F 45% 30.05 in 10.0 mi SSE 16.1 mph - N/A   Clear
5:51 AM 43.0 °F 35.1 °F 23.0 °F 45% 30.04 in 10.0 mi SSE 17.3 mph 25.3 mph N/A   Clear
6:51 AM 42.1 °F 34.9 °F 24.1 °F 49% 30.02 in 10.0 mi SE 13.8 mph - N/A   Clear
7:51 AM 43.0 °F 34.8 °F 25.0 °F 49% 30.01 in 10.0 mi SSE 18.4 mph 28.8 mph N/A   Clear
8:51 AM 45.0 °F 36.6 °F 25.0 °F 46% 29.98 in 10.0 mi SSE 21.9 mph 29.9 mph N/A   Partly Cloudy
9:51 AM 46.9 °F - 25.0 °F 42% 29.97 in 10.0 mi SSE 18.4 mph 25.3 mph N/A   Scattered Clouds
10:51 AM 51.1 °F - 26.1 °F 38% 29.94 in 10.0 mi SSE 23.0 mph 26.5 mph N/A   Mostly Cloudy
11:51 AM 53.1 °F - 27.0 °F 37% 29.89 in 10.0 mi SSE 12.7 mph 24.2 mph N/A   Overcast
12:51 PM 59.0 °F - 28.9 °F 32% 29.84 in 10.0 mi South 19.6 mph 31.1 mph N/A   Partly Cloudy
1:51 PM 66.0 °F - 34.0 °F 30% 29.80 in 10.0 mi South 20.7 mph 28.8 mph N/A   Clear
2:51 PM 70.0 °F - 35.1 °F 28% 29.76 in 10.0 mi South 23.0 mph 29.9 mph N/A   Clear
3:51 PM 72.0 °F - 35.1 °F 26% 29.75 in 10.0 mi SSW 15.0 mph 32.2 mph 0.01 in   Clear
4:25 PM 64.4 °F - 35.6 °F 34% 29.77 in 10.0 mi West 16.1 mph 28.8 mph N/A   Mostly Cloudy
4:51 PM 55.9 °F - 36.0 °F 47% 29.81 in 10.0 mi West 17.3 mph 25.3 mph N/A   Partly Cloudy
5:51 PM 53.1 °F - 34.0 °F 48% 29.83 in 10.0 mi West 15.0 mph 21.9 mph N/A   Clear
6:51 PM 52.0 °F - 32.0 °F 47% 29.87 in 10.0 mi WSW 15.0 mph 23.0 mph N/A   Clear
7:51 PM 50.0 °F - 32.0 °F 50% 29.91 in 10.0 mi WSW 15.0 mph 21.9 mph N/A   Clear
8:51 PM 46.0 °F 40.2 °F 30.9 °F 56% 29.95 in 10.0 mi WSW 12.7 mph 21.9 mph N/A   Clear
9:51 PM 46.0 °F 40.6 °F 30.0 °F 54% 29.98 in 10.0 mi WSW 11.5 mph 21.9 mph N/A   Clear
10:51 PM 46.0 °F 41.9 °F 30.0 °F 54% 29.99 in 10.0 mi WSW 8.1 mph 19.6 mph N/A   Clear
11:51 PM 46.9 °F - 30.0 °F 52% 30.00 in 10.0 mi WSW 12.7 mph 20.7 mph N/A   Clear